Time,TemperatureF,DewpointF,PressureIn,WindDirection,WindDirectionDegrees,WindSpeedMPH,WindSpeedGustMPH,Humidity,HourlyPrecipIn,Conditions,Clouds,dailyrainin,SoftwareType,DateUTC
2013-06-29 00:01:00,61.7,40.1,30.47,SSE,158,4.0,5.4,45,0.00,,,0.00,WUHU216HW,2013-06-29 06:01:00,
2013-06-29 00:06:00,61.7,40.1,30.47,NNW,338,2.2,4.0,45,0.00,,,0.00,WUHU216HW,2013-06-29 06:06:00,
2013-06-29 00:11:00,61.6,40.5,30.47,West,270,2.7,4.0,46,0.00,,,0.00,WUHU216HW,2013-06-29 06:11:00,
2013-06-29 00:16:00,61.6,41.0,30.47,NNE,23,2.5,3.4,47,0.00,,,0.00,WUHU216HW,2013-06-29 06:16:00,
2013-06-29 00:21:00,61.2,41.3,30.47,NNW,338,2.7,2.7,48,0.00,,,0.00,WUHU216HW,2013-06-29 06:21:00,
2013-06-29 00:26:00,61.0,41.1,30.47,North,0,4.0,4.0,48,0.00,,,0.00,WUHU216HW,2013-06-29 06:26:00,
2013-06-29 00:31:00,60.5,41.2,30.48,NNW,338,2.0,4.0,49,0.00,,,0.00,WUHU216HW,2013-06-29 06:31:00,
2013-06-29 00:36:00,60.5,41.2,30.47,WSW,248,1.8,2.7,49,0.00,,,0.00,WUHU216HW,2013-06-29 06:36:00,
2013-06-29 00:41:00,60.3,41.0,30.47,ENE,68,4.7,4.7,49,0.00,,,0.00,WUHU216HW,2013-06-29 06:41:00,
2013-06-29 00:46:00,60.3,41.0,30.48,North,0,3.4,4.7,49,0.00,,,0.00,WUHU216HW,2013-06-29 06:46:00,
2013-06-29 00:51:00,59.9,41.3,30.48,NNW,338,4.0,4.7,50,0.00,,,0.00,WUHU216HW,2013-06-29 06:51:00,
2013-06-29 00:56:00,59.8,41.1,30.48,NNW,338,1.8,4.0,50,0.00,,,0.00,WUHU216HW,2013-06-29 06:56:00,
2013-06-29 01:01:00,59.6,41.0,30.48,NNE,23,0.2,4.0,50,0.00,,,0.00,WUHU216HW,2013-06-29 07:01:00,
2013-06-29 01:06:00,59.2,40.7,30.48,NW,315,0.0,1.8,50,0.00,,,0.00,WUHU216HW,2013-06-29 07:06:00,
2013-06-29 01:11:00,58.7,40.1,30.48,ENE,68,1.1,1.1,50,0.00,,,0.00,WUHU216HW,2013-06-29 07:11:00,
2013-06-29 01:16:00,58.3,40.3,30.48,NNW,338,0.0,1.1,51,0.00,,,0.00,WUHU216HW,2013-06-29 07:16:00,
2013-06-29 01:21:00,58.0,40.5,30.48,North,0,0.7,1.1,52,0.00,,,0.00,WUHU216HW,2013-06-29 07:21:00,
2013-06-29 01:26:00,57.6,41.6,30.48,North,0,2.2,2.2,55,0.00,,,0.00,WUHU216HW,2013-06-29 07:26:00,
2013-06-29 01:31:00,57.6,41.6,30.48,NE,45,0.7,2.2,55,0.00,,,0.00,WUHU216HW,2013-06-29 07:31:00,
2013-06-29 01:36:00,57.6,42.0,30.48,NNW,338,2.0,2.0,56,0.00,,,0.00,WUHU216HW,2013-06-29 07:36:00,
2013-06-29 01:41:00,57.6,41.0,30.48,ENE,68,1.8,2.0,54,0.00,,,0.00,WUHU216HW,2013-06-29 07:41:00,
2013-06-29 01:46:00,57.4,41.0,30.48,ENE,68,1.8,2.0,54,0.00,,,0.00,WUHU216HW,2013-06-29 07:46:00,
2013-06-29 01:51:00,57.2,40.8,30.48,East,90,1.1,1.8,54,0.00,,,0.00,WUHU216HW,2013-06-29 07:51:00,
2013-06-29 01:56:00,57.1,40.6,30.48,WNW,293,0.7,1.8,54,0.00,,,0.00,WUHU216HW,2013-06-29 07:56:00,
2013-06-29 02:01:00,56.7,41.6,30.48,North,0,1.3,1.3,57,0.00,,,0.00,WUHU216HW,2013-06-29 08:01:00,
2013-06-29 02:06:00,56.9,41.8,30.48,NNW,338,1.8,1.8,57,0.00,,,0.00,WUHU216HW,2013-06-29 08:06:00,
2013-06-29 02:11:00,57.1,41.5,30.48,NNE,23,0.9,1.8,56,0.00,,,0.00,WUHU216HW,2013-06-29 08:11:00,
2013-06-29 02:16:00,56.9,40.9,30.48,ESE,113,2.5,2.5,55,0.00,,,0.00,WUHU216HW,2013-06-29 08:16:00,
2013-06-29 02:21:00,56.5,41.4,30.48,North,0,2.0,2.5,57,0.00,,,0.00,WUHU216HW,2013-06-29 08:21:00,
2013-06-29 02:26:00,56.3,41.2,30.48,North,0,0.9,2.5,57,0.00,,,0.00,WUHU216HW,2013-06-29 08:26:00,
2013-06-29 02:31:00,56.5,41.4,30.48,NNW,338,0.4,2.0,57,0.00,,,0.00,WUHU216HW,2013-06-29 08:31:00,
2013-06-29 02:36:00,56.5,42.4,30.48,North,0,2.5,2.5,59,0.00,,,0.00,WUHU216HW,2013-06-29 08:36:00,
2013-06-29 02:41:00,56.5,42.4,30.48,ENE,68,2.0,2.5,59,0.00,,,0.00,WUHU216HW,2013-06-29 08:41:00,
2013-06-29 02:46:00,56.7,43.8,30.48,NNW,338,3.8,3.8,62,0.00,,,0.00,WUHU216HW,2013-06-29 08:46:00,
2013-06-29 02:51:00,56.5,43.2,30.48,NNW,338,3.1,3.8,61,0.00,,,0.00,WUHU216HW,2013-06-29 08:51:00,
2013-06-29 02:56:00,56.3,43.5,30.48,NNW,338,2.5,3.8,62,0.00,,,0.00,WUHU216HW,2013-06-29 08:56:00,
2013-06-29 03:01:00,55.8,42.9,30.48,NNE,23,2.5,3.6,62,0.00,,,0.00,WUHU216HW,2013-06-29 09:01:00,
2013-06-29 03:06:00,55.4,43.4,30.48,NNE,23,3.4,3.6,64,0.00,,,0.00,WUHU216HW,2013-06-29 09:06:00,
2013-06-29 03:11:00,55.3,42.4,30.48,NNE,23,0.4,3.4,62,0.00,,,0.00,WUHU216HW,2013-06-29 09:11:00,
2013-06-29 03:16:00,54.9,42.5,30.48,North,0,1.1,3.4,63,0.00,,,0.00,WUHU216HW,2013-06-29 09:16:00,
2013-06-29 03:21:00,54.5,43.4,30.48,North,0,2.9,2.9,66,0.00,,,0.00,WUHU216HW,2013-06-29 09:21:00,
2013-06-29 03:26:00,54.5,42.6,30.47,NNE,23,0.4,2.9,64,0.00,,,0.00,WUHU216HW,2013-06-29 09:26:00,
2013-06-29 03:31:00,54.2,42.2,30.47,NE,45,2.9,2.9,64,0.00,,,0.00,WUHU216HW,2013-06-29 09:31:00,
2013-06-29 03:36:00,54.0,42.8,30.47,NE,45,4.0,4.0,66,0.00,,,0.00,WUHU216HW,2013-06-29 09:36:00,
2013-06-29 03:41:00,54.2,42.7,30.47,NNE,23,3.8,4.0,65,0.00,,,0.00,WUHU216HW,2013-06-29 09:41:00,
2013-06-29 03:46:00,54.0,41.7,30.47,South,180,1.3,4.0,63,0.00,,,0.00,WUHU216HW,2013-06-29 09:46:00,
2013-06-29 03:51:00,53.3,40.6,30.47,SE,135,0.4,1.8,62,0.00,,,0.00,WUHU216HW,2013-06-29 09:51:00,
2013-06-29 03:56:00,52.6,39.9,30.46,East,90,2.5,2.5,62,0.00,,,0.00,WUHU216HW,2013-06-29 09:56:00,
2013-06-29 04:01:00,52.4,39.7,30.46,SE,135,0.4,2.5,62,0.00,,,0.00,WUHU216HW,2013-06-29 10:01:00,
2013-06-29 04:06:00,51.8,40.9,30.46,NNE,23,3.1,4.3,66,0.00,,,0.00,WUHU216HW,2013-06-29 10:06:00,
2013-06-29 04:11:00,52.0,41.0,30.46,NNE,23,2.7,4.3,66,0.00,,,0.00,WUHU216HW,2013-06-29 10:11:00,
2013-06-29 04:16:00,52.2,40.0,30.46,North,0,0.0,3.1,63,0.00,,,0.00,WUHU216HW,2013-06-29 10:16:00,
2013-06-29 04:21:00,51.8,40.0,30.45,NE,45,0.4,2.7,64,0.00,,,0.00,WUHU216HW,2013-06-29 10:21:00,
2013-06-29 04:26:00,51.8,40.0,30.45,SW,225,0.4,0.7,64,0.00,,,0.00,WUHU216HW,2013-06-29 10:26:00,
2013-06-29 04:31:00,51.5,39.2,30.46,ESE,113,1.1,1.1,63,0.00,,,0.00,WUHU216HW,2013-06-29 10:31:00,
2013-06-29 04:36:00,50.6,38.4,30.46,SW,225,0.0,1.1,63,0.00,,,0.00,WUHU216HW,2013-06-29 10:36:00,
2013-06-29 04:41:00,50.0,38.4,30.46,West,270,0.2,0.4,64,0.00,,,0.00,WUHU216HW,2013-06-29 10:41:00,
2013-06-29 04:46:00,50.0,38.4,30.46,SW,225,0.0,0.4,64,0.00,,,0.00,WUHU216HW,2013-06-29 10:46:00,
2013-06-29 04:51:00,50.0,38.7,30.46,SE,135,2.2,2.2,65,0.00,,,0.00,WUHU216HW,2013-06-29 10:51:00,
2013-06-29 04:56:00,50.8,40.6,30.45,SSE,158,2.5,4.0,68,0.00,,,0.00,WUHU216HW,2013-06-29 10:56:00,
2013-06-29 05:01:00,51.7,42.3,30.45,SE,135,3.4,4.0,70,0.00,,,0.00,WUHU216HW,2013-06-29 11:01:00,
2013-06-29 05:06:00,52.2,41.9,30.45,SSE,158,0.4,3.4,68,0.00,,,0.00,WUHU216HW,2013-06-29 11:06:00,
2013-06-29 05:11:00,52.2,41.9,30.45,SE,135,1.3,1.3,68,0.00,,,0.00,WUHU216HW,2013-06-29 11:11:00,
2013-06-29 05:16:00,52.4,42.6,30.45,ESE,113,3.8,3.8,69,0.00,,,0.00,WUHU216HW,2013-06-29 11:16:00,
2013-06-29 05:21:00,52.7,42.5,30.45,East,90,4.5,4.5,68,0.00,,,0.00,WUHU216HW,2013-06-29 11:21:00,
2013-06-29 05:26:00,53.5,42.8,30.45,SSE,158,5.1,5.4,67,0.00,,,0.00,WUHU216HW,2013-06-29 11:26:00,
2013-06-29 05:31:00,53.8,42.3,30.45,ENE,68,2.9,5.4,65,0.00,,,0.00,WUHU216HW,2013-06-29 11:31:00,
2013-06-29 05:36:00,54.0,42.0,30.45,SSE,158,3.8,5.1,64,0.00,,,0.00,WUHU216HW,2013-06-29 11:36:00,
2013-06-29 05:41:00,54.2,42.2,30.45,ESE,113,3.6,3.8,64,0.00,,,0.00,WUHU216HW,2013-06-29 11:41:00,
2013-06-29 05:46:00,54.2,41.9,30.45,East,90,3.6,3.8,63,0.00,,,0.00,WUHU216HW,2013-06-29 11:46:00,
2013-06-29 05:51:00,54.2,41.9,30.45,ENE,68,2.5,3.6,63,0.00,,,0.00,WUHU216HW,2013-06-29 11:51:00,
2013-06-29 05:56:00,54.0,41.7,30.45,East,90,2.5,3.1,63,0.00,,,0.00,WUHU216HW,2013-06-29 11:56:00,
2013-06-29 06:01:00,54.0,41.2,30.45,NE,45,2.2,2.5,62,0.00,,,0.00,WUHU216HW,2013-06-29 12:01:00,
2013-06-29 06:06:00,53.6,40.5,30.45,NE,45,2.7,2.7,61,0.00,,,0.00,WUHU216HW,2013-06-29 12:06:00,
2013-06-29 06:11:00,53.3,39.8,30.45,NNE,23,4.7,4.7,60,0.00,,,0.00,WUHU216HW,2013-06-29 12:11:00,
2013-06-29 06:16:00,53.1,39.2,30.45,NE,45,0.7,4.7,59,0.00,,,0.00,WUHU216HW,2013-06-29 12:16:00,
2013-06-29 06:21:00,52.9,39.0,30.45,NE,45,1.6,3.4,59,0.00,,,0.00,WUHU216HW,2013-06-29 12:21:00,
2013-06-29 06:26:00,52.9,39.0,30.44,NE,45,2.0,2.0,59,0.00,,,0.00,WUHU216HW,2013-06-29 12:26:00,
2013-06-29 06:31:00,53.3,39.3,30.44,NNE,23,2.0,2.0,59,0.00,,,0.00,WUHU216HW,2013-06-29 12:31:00,
2013-06-29 06:36:00,54.0,39.5,30.45,NE,45,3.8,4.5,58,0.00,,,0.00,WUHU216HW,2013-06-29 12:36:00,
2013-06-29 06:41:00,54.4,39.4,30.45,NE,45,3.8,4.5,57,0.00,,,0.00,WUHU216HW,2013-06-29 12:41:00,
2013-06-29 06:46:00,54.4,38.9,30.45,North,0,2.5,3.8,56,0.00,,,0.00,WUHU216HW,2013-06-29 12:46:00,
2013-06-29 06:51:00,54.7,38.8,30.45,North,0,1.6,3.8,55,0.00,,,0.00,WUHU216HW,2013-06-29 12:51:00,
2013-06-29 06:56:00,54.9,39.0,30.45,NNE,23,2.0,2.5,55,0.00,,,0.00,WUHU216HW,2013-06-29 12:56:00,
2013-06-29 07:01:00,55.1,39.1,30.45,NNE,23,3.4,3.4,55,0.00,,,0.00,WUHU216HW,2013-06-29 13:01:00,
2013-06-29 07:06:00,55.3,39.2,30.45,North,0,1.1,3.4,55,0.00,,,0.00,WUHU216HW,2013-06-29 13:06:00,
2013-06-29 07:11:00,56.2,39.3,30.45,NE,45,1.8,3.4,53,0.00,,,0.00,WUHU216HW,2013-06-29 13:11:00,
2013-06-29 07:16:00,56.5,40.1,30.44,North,0,3.1,3.1,54,0.00,,,0.00,WUHU216HW,2013-06-29 13:16:00,
2013-06-29 07:21:00,57.1,39.6,30.44,NE,45,3.1,3.1,52,0.00,,,0.00,WUHU216HW,2013-06-29 13:21:00,
2013-06-29 07:26:00,57.8,40.3,30.44,ENE,68,2.2,3.1,52,0.00,,,0.00,WUHU216HW,2013-06-29 13:26:00,
2013-06-29 07:31:00,59.2,40.7,30.44,NNE,23,1.8,3.1,50,0.00,,,0.00,WUHU216HW,2013-06-29 13:31:00,
2013-06-29 07:36:00,59.4,40.2,30.44,SSE,158,0.4,2.5,49,0.00,,,0.00,WUHU216HW,2013-06-29 13:36:00,
2013-06-29 07:41:00,59.8,41.1,30.45,West,270,0.0,1.8,50,0.00,,,0.00,WUHU216HW,2013-06-29 13:41:00,
2013-06-29 07:46:00,60.3,40.5,30.45,NW,315,3.4,3.4,48,0.00,,,0.00,WUHU216HW,2013-06-29 13:46:00,
2013-06-29 07:51:00,60.5,40.7,30.45,West,270,1.6,3.4,48,0.00,,,0.00,WUHU216HW,2013-06-29 13:51:00,
2013-06-29 07:56:00,60.8,40.4,30.45,North,0,1.8,3.4,47,0.00,,,0.00,WUHU216HW,2013-06-29 13:56:00,
2013-06-29 08:01:00,61.0,40.6,30.45,NW,315,0.4,1.8,47,0.00,,,0.00,WUHU216HW,2013-06-29 14:01:00,
2013-06-29 08:06:00,62.5,41.3,30.45,SE,135,0.0,1.8,46,0.00,,,0.00,WUHU216HW,2013-06-29 14:06:00,
2013-06-29 08:11:00,63.2,42.0,30.45,NE,45,0.2,0.4,46,0.00,,,0.00,WUHU216HW,2013-06-29 14:11:00,
2013-06-29 08:16:00,63.4,40.3,30.45,NW,315,1.8,1.8,43,0.00,,,0.00,WUHU216HW,2013-06-29 14:16:00,
2013-06-29 08:21:00,63.5,40.5,30.45,North,0,2.0,2.0,43,0.00,,,0.00,WUHU216HW,2013-06-29 14:21:00,
2013-06-29 08:26:00,63.4,41.0,30.45,NE,45,2.7,2.7,44,0.00,,,0.00,WUHU216HW,2013-06-29 14:26:00,
2013-06-29 08:31:00,63.7,41.2,30.45,NW,315,4.5,4.5,44,0.00,,,0.00,WUHU216HW,2013-06-29 14:31:00,
2013-06-29 08:36:00,63.7,41.2,30.45,NW,315,2.9,4.5,44,0.00,,,0.00,WUHU216HW,2013-06-29 14:36:00,
2013-06-29 08:41:00,63.5,41.7,30.45,SSE,158,0.4,4.5,45,0.00,,,0.00,WUHU216HW,2013-06-29 14:41:00,
2013-06-29 08:46:00,63.9,41.4,30.45,NW,315,3.4,3.4,44,0.00,,,0.00,WUHU216HW,2013-06-29 14:46:00,
2013-06-29 08:51:00,64.1,41.6,30.45,West,270,2.5,3.4,44,0.00,,,0.00,WUHU216HW,2013-06-29 14:51:00,
2013-06-29 08:56:00,63.7,41.2,30.46,NNW,338,5.1,5.1,44,0.00,,,0.00,WUHU216HW,2013-06-29 14:56:00,
2013-06-29 09:01:00,63.4,41.5,30.46,NNW,338,3.8,5.1,45,0.00,,,0.00,WUHU216HW,2013-06-29 15:01:00,
2013-06-29 09:06:00,63.0,42.3,30.46,North,0,1.1,3.8,47,0.00,,,0.00,WUHU216HW,2013-06-29 15:06:00,
2013-06-29 09:11:00,63.4,42.7,30.46,North,0,4.5,4.5,47,0.00,,,0.00,WUHU216HW,2013-06-29 15:11:00,
2013-06-29 09:16:00,63.2,43.7,30.46,NE,45,4.7,4.7,49,0.00,,,0.00,WUHU216HW,2013-06-29 15:16:00,
2013-06-29 09:21:00,62.5,43.6,30.46,NNE,23,2.5,4.7,50,0.00,,,0.00,WUHU216HW,2013-06-29 15:21:00,
2013-06-29 09:26:00,62.5,44.1,30.46,NNE,23,3.6,4.5,51,0.00,,,0.00,WUHU216HW,2013-06-29 15:26:00,
2013-06-29 09:31:00,62.3,43.9,30.46,NNE,23,2.7,3.6,51,0.00,,,0.00,WUHU216HW,2013-06-29 15:31:00,
2013-06-29 09:36:00,62.5,44.1,30.46,NE,45,2.5,3.6,51,0.00,,,0.00,WUHU216HW,2013-06-29 15:36:00,
2013-06-29 09:41:00,62.3,43.9,30.46,NNW,338,3.6,3.6,51,0.00,,,0.00,WUHU216HW,2013-06-29 15:41:00,
2013-06-29 09:46:00,62.3,43.9,30.45,NNE,23,2.9,3.6,51,0.00,,,0.00,WUHU216HW,2013-06-29 15:46:00,
2013-06-29 09:51:00,62.3,43.9,30.43,South,180,5.4,5.4,51,0.00,,,0.00,WUHU216HW,2013-06-29 15:51:00,
2013-06-29 09:56:00,62.6,43.7,30.43,SW,225,1.6,5.4,50,0.00,,,0.00,WUHU216HW,2013-06-29 15:56:00,
2013-06-29 10:01:00,63.0,44.1,30.44,SW,225,4.3,4.3,50,0.00,,,0.00,WUHU216HW,2013-06-29 16:01:00,
2013-06-29 10:06:00,63.2,43.7,30.43,WNW,293,2.0,4.3,49,0.00,,,0.00,WUHU216HW,2013-06-29 16:06:00,
2013-06-29 10:11:00,63.0,42.3,30.43,ENE,68,1.6,4.3,47,0.00,,,0.00,WUHU216HW,2013-06-29 16:11:00,
2013-06-29 10:16:00,63.5,43.4,30.44,SW,225,3.6,3.6,48,0.00,,,0.00,WUHU216HW,2013-06-29 16:16:00,
2013-06-29 10:21:00,63.5,43.4,30.44,SW,225,5.8,5.8,48,0.00,,,0.00,WUHU216HW,2013-06-29 16:21:00,
2013-06-29 10:26:00,64.4,43.0,30.43,South,180,5.8,5.8,46,0.00,,,0.00,WUHU216HW,2013-06-29 16:26:00,
2013-06-29 10:32:00,66.2,44.2,30.44,SE,135,2.5,5.8,45,0.00,,,0.00,WUHU216HW,2013-06-29 16:32:00,
2013-06-29 10:37:00,66.8,43.5,30.44,SW,225,2.7,3.6,43,0.00,,,0.00,WUHU216HW,2013-06-29 16:37:00,
2013-06-29 10:41:00,67.3,43.4,30.43,SW,225,2.7,2.7,42,0.00,,,0.00,WUHU216HW,2013-06-29 16:41:00,
2013-06-29 10:46:00,68.0,44.0,30.43,South,180,4.5,4.5,42,0.00,,,0.00,WUHU216HW,2013-06-29 16:46:00,
2013-06-29 10:51:00,69.7,42.9,30.43,SE,135,3.8,4.5,38,0.00,,,0.00,WUHU216HW,2013-06-29 16:51:00,
2013-06-29 10:57:00,70.4,42.0,30.43,SSE,158,4.7,4.7,36,0.00,,,0.00,WUHU216HW,2013-06-29 16:57:00,
2013-06-29 11:01:00,70.7,41.6,30.43,South,180,1.3,4.7,35,0.00,,,0.00,WUHU216HW,2013-06-29 17:01:00,
2013-06-29 11:07:00,72.7,41.0,30.43,SSW,203,4.3,5.1,32,0.00,,,0.00,WUHU216HW,2013-06-29 17:07:00,
2013-06-29 11:12:00,73.1,40.6,30.43,WSW,248,2.0,5.1,31,0.00,,,0.00,WUHU216HW,2013-06-29 17:12:00,
2013-06-29 11:17:00,73.6,40.3,30.43,WSW,248,4.5,4.5,30,0.00,,,0.00,WUHU216HW,2013-06-29 17:17:00,
2013-06-29 11:22:00,74.0,40.6,30.43,WSW,248,0.7,4.5,30,0.00,,,0.00,WUHU216HW,2013-06-29 17:22:00,
2013-06-29 11:27:00,74.9,39.4,30.43,SSW,203,4.0,5.4,28,0.00,,,0.00,WUHU216HW,2013-06-29 17:27:00,
2013-06-29 11:32:00,75.2,39.7,30.43,ESE,113,1.6,5.4,28,0.00,,,0.00,WUHU216HW,2013-06-29 17:32:00,
2013-06-29 11:37:00,75.6,40.1,30.43,North,0,2.2,4.0,28,0.00,,,0.00,WUHU216HW,2013-06-29 17:37:00,
2013-06-29 11:42:00,76.1,40.5,30.42,WSW,248,4.9,4.9,28,0.00,,,0.00,WUHU216HW,2013-06-29 17:42:00,
2013-06-29 11:47:00,76.1,40.5,30.42,SSW,203,5.8,5.8,28,0.00,,,0.00,WUHU216HW,2013-06-29 17:47:00,
2013-06-29 11:52:00,76.3,40.7,30.42,South,180,6.9,6.9,28,0.00,,,0.00,WUHU216HW,2013-06-29 17:52:00,
2013-06-29 11:57:00,77.0,41.3,30.41,SW,225,9.2,9.2,28,0.00,,,0.00,WUHU216HW,2013-06-29 17:57:00,
2013-06-29 12:02:00,76.9,39.1,30.41,SSE,158,7.2,9.2,26,0.00,,,0.00,WUHU216HW,2013-06-29 18:02:00,
2013-06-29 12:07:00,76.5,40.9,30.41,SW,225,6.9,9.2,28,0.00,,,0.00,WUHU216HW,2013-06-29 18:07:00,
2013-06-29 12:12:00,77.6,39.6,30.41,SSE,158,6.0,7.2,26,0.00,,,0.00,WUHU216HW,2013-06-29 18:12:00,
2013-06-29 12:17:00,78.1,40.1,30.41,South,180,4.7,6.0,26,0.00,,,0.00,WUHU216HW,2013-06-29 18:17:00,
2013-06-29 12:22:00,78.8,39.6,30.40,South,180,5.6,6.0,25,0.00,,,0.00,WUHU216HW,2013-06-29 18:22:00,
2013-06-29 12:27:00,78.7,38.4,30.40,North,0,3.6,5.6,24,0.00,,,0.00,WUHU216HW,2013-06-29 18:27:00,
2013-06-29 12:32:00,77.4,38.4,30.40,NNW,338,3.1,5.6,25,0.00,,,0.00,WUHU216HW,2013-06-29 18:32:00,
2013-06-29 12:37:00,77.0,39.3,30.40,NNE,23,3.1,3.6,26,0.00,,,0.00,WUHU216HW,2013-06-29 18:37:00,
2013-06-29 12:42:00,76.7,37.9,30.40,NW,315,2.5,3.1,25,0.00,,,0.00,WUHU216HW,2013-06-29 18:42:00,
2013-06-29 12:47:00,76.9,37.0,30.40,North,0,4.7,4.7,24,0.00,,,0.00,WUHU216HW,2013-06-29 18:47:00,
2013-06-29 12:52:00,79.6,37.1,30.40,NNW,338,6.3,6.3,22,0.00,,,0.00,WUHU216HW,2013-06-29 18:52:00,
2013-06-29 12:57:00,79.9,36.4,30.40,NW,315,6.3,6.3,21,0.00,,,0.00,WUHU216HW,2013-06-29 18:57:00,
2013-06-29 13:02:00,79.2,36.8,30.40,NE,45,0.7,6.3,22,0.00,,,0.00,WUHU216HW,2013-06-29 19:02:00,
2013-06-29 13:07:00,79.0,36.6,30.40,NE,45,4.0,6.3,22,0.00,,,0.00,WUHU216HW,2013-06-29 19:07:00,
2013-06-29 13:12:00,78.8,36.5,30.40,North,0,8.5,8.5,22,0.00,,,0.00,WUHU216HW,2013-06-29 19:12:00,
2013-06-29 13:17:00,79.0,36.6,30.39,North,0,0.9,8.5,22,0.00,,,0.00,WUHU216HW,2013-06-29 19:17:00,
2013-06-29 13:22:00,79.4,37.0,30.39,NNW,338,3.1,8.5,22,0.00,,,0.00,WUHU216HW,2013-06-29 19:22:00,
2013-06-29 13:27:00,79.6,37.1,30.38,SE,135,3.1,3.1,22,0.00,,,0.00,WUHU216HW,2013-06-29 19:27:00,
2013-06-29 13:32:00,79.9,37.4,30.38,North,0,3.1,3.1,22,0.00,,,0.00,WUHU216HW,2013-06-29 19:32:00,
2013-06-29 13:37:00,79.6,37.1,30.38,SSW,203,0.7,3.1,22,0.00,,,0.00,WUHU216HW,2013-06-29 19:37:00,
2013-06-29 13:42:00,78.8,37.5,30.38,SE,135,7.6,7.6,23,0.00,,,0.00,WUHU216HW,2013-06-29 19:42:00,
2013-06-29 13:47:00,78.5,42.5,30.38,ENE,68,3.4,7.6,28,0.00,,,0.00,WUHU216HW,2013-06-29 19:47:00,
2013-06-29 13:52:00,77.0,43.4,30.38,SSE,158,6.7,7.6,30,0.00,,,0.00,WUHU216HW,2013-06-29 19:52:00,
2013-06-29 13:57:00,76.3,43.5,30.39,South,180,4.7,6.7,31,0.00,,,0.00,WUHU216HW,2013-06-29 19:57:00,
2013-06-29 14:02:00,74.0,43.7,30.40,SSE,158,2.0,6.7,34,0.00,,,0.00,WUHU216HW,2013-06-29 20:02:00,
2013-06-29 14:07:00,73.3,45.3,30.40,SSE,158,9.2,9.2,37,0.00,,,0.00,WUHU216HW,2013-06-29 20:07:00,
2013-06-29 14:12:00,72.4,45.3,30.40,SSE,158,10.3,10.3,38,0.00,,,0.00,WUHU216HW,2013-06-29 20:12:00,
2013-06-29 14:17:00,71.5,45.2,30.40,SE,135,7.8,10.3,39,0.00,,,0.00,WUHU216HW,2013-06-29 20:17:00,
2013-06-29 14:22:00,70.6,44.4,30.41,SSW,203,5.1,10.3,39,0.00,,,0.00,WUHU216HW,2013-06-29 20:22:00,
2013-06-29 14:27:00,70.2,44.8,30.43,ESE,113,6.3,8.5,40,0.00,,,0.00,WUHU216HW,2013-06-29 20:27:00,
2013-06-29 14:32:00,69.8,44.5,30.45,ESE,113,3.8,6.3,40,0.00,,,0.00,WUHU216HW,2013-06-29 20:32:00,
2013-06-29 14:37:00,67.3,41.5,30.45,SSW,203,4.5,11.0,39,0.00,,,0.00,WUHU216HW,2013-06-29 20:37:00,
2013-06-29 14:42:00,65.7,43.1,30.45,NW,315,10.1,11.0,44,0.00,,,0.00,WUHU216HW,2013-06-29 20:42:00,
2013-06-29 14:47:00,61.6,45.2,30.47,WNW,293,10.5,10.5,55,0.00,,,0.00,WUHU216HW,2013-06-29 20:47:00,
2013-06-29 14:52:00,58.7,46.1,30.48,NW,315,3.4,10.5,63,0.00,,,0.00,WUHU216HW,2013-06-29 20:52:00,
2013-06-29 14:57:00,56.9,46.8,30.48,NNW,338,3.6,10.5,69,0.00,,,0.00,WUHU216HW,2013-06-29 20:57:00,
2013-06-29 15:02:00,56.7,48.4,30.48,NNE,23,1.8,5.6,74,0.01,,,0.00,WUHU216HW,2013-06-29 21:02:00,
2013-06-29 15:07:00,56.5,47.6,30.48,NNE,23,1.1,5.6,72,0.01,,,0.01,WUHU216HW,2013-06-29 21:07:00,
2013-06-29 15:11:00,56.5,47.6,30.48,ENE,68,1.1,2.9,72,0.01,,,0.01,WUHU216HW,2013-06-29 21:11:00,
2013-06-29 15:16:00,56.5,46.4,30.48,ENE,68,0.9,1.1,69,0.01,,,0.01,WUHU216HW,2013-06-29 21:16:00,
2013-06-29 15:21:00,56.5,47.6,30.47,SE,135,3.4,3.4,72,0.01,,,0.01,WUHU216HW,2013-06-29 21:21:00,
2013-06-29 15:26:00,55.8,49.3,30.47,SSE,158,4.7,5.6,79,0.02,,,0.02,WUHU216HW,2013-06-29 21:26:00,
2013-06-29 15:31:00,55.8,49.3,30.45,SSE,158,9.2,9.2,79,0.02,,,0.02,WUHU216HW,2013-06-29 21:31:00,
2013-06-29 15:36:00,55.8,48.3,30.44,SW,225,2.7,9.2,76,0.03,,,0.03,WUHU216HW,2013-06-29 21:36:00,
2013-06-29 15:41:00,56.3,47.1,30.45,East,90,8.1,9.2,71,0.03,,,0.03,WUHU216HW,2013-06-29 21:41:00,
2013-06-29 15:46:00,57.2,47.2,30.45,East,90,3.6,8.1,69,0.03,,,0.03,WUHU216HW,2013-06-29 21:46:00,
2013-06-29 15:51:00,57.6,46.7,30.45,SE,135,1.3,5.6,67,0.03,,,0.03,WUHU216HW,2013-06-29 21:51:00,
2013-06-29 15:56:00,57.8,47.7,30.45,East,90,0.0,3.6,69,0.04,,,0.04,WUHU216HW,2013-06-29 21:56:00,
2013-06-29 16:01:00,57.8,49.9,30.46,NW,315,0.9,1.8,75,0.03,,,0.04,WUHU216HW,2013-06-29 22:01:00,
2013-06-29 16:06:00,57.8,49.1,30.47,NW,315,1.1,1.8,73,0.03,,,0.04,WUHU216HW,2013-06-29 22:06:00,
2013-06-29 16:11:00,57.6,49.0,30.48,NW,315,2.5,2.5,73,0.04,,,0.05,WUHU216HW,2013-06-29 22:11:00,
2013-06-29 16:16:00,56.9,50.8,30.48,NNE,23,4.0,4.0,80,0.04,,,0.05,WUHU216HW,2013-06-29 22:16:00,
2013-06-29 16:21:00,56.2,49.7,30.49,NW,315,4.7,4.7,79,0.04,,,0.05,WUHU216HW,2013-06-29 22:21:00,
2013-06-29 16:26:00,55.8,50.1,30.48,North,0,1.1,4.7,81,0.04,,,0.06,WUHU216HW,2013-06-29 22:26:00,
2013-06-29 16:31:00,55.4,49.0,30.48,ESE,113,0.4,1.8,79,0.03,,,0.06,WUHU216HW,2013-06-29 22:31:00,
2013-06-29 16:36:00,55.3,48.8,30.49,NE,45,0.4,2.0,79,0.03,,,0.06,WUHU216HW,2013-06-29 22:36:00,
2013-06-29 16:41:00,55.3,48.8,30.48,NE,45,2.0,2.0,79,0.03,,,0.06,WUHU216HW,2013-06-29 22:41:00,
2013-06-29 16:46:00,55.1,48.0,30.47,NE,45,0.0,2.0,77,0.04,,,0.08,WUHU216HW,2013-06-29 22:46:00,
2013-06-29 16:51:00,55.1,48.7,30.47,SW,225,1.1,2.0,79,0.03,,,0.08,WUHU216HW,2013-06-29 22:51:00,
2013-06-29 16:56:00,55.1,49.0,30.46,WSW,248,0.0,1.1,80,0.04,,,0.08,WUHU216HW,2013-06-29 22:56:00,
2013-06-29 17:01:00,55.1,48.7,30.47,ESE,113,2.0,2.0,79,0.04,,,0.08,WUHU216HW,2013-06-29 23:01:00,
2013-06-29 17:06:00,55.1,50.0,30.47,NE,45,4.7,4.7,83,0.03,,,0.08,WUHU216HW,2013-06-29 23:06:00,
2013-06-29 17:11:00,55.4,49.7,30.46,NE,45,1.6,4.7,81,0.03,,,0.08,WUHU216HW,2013-06-29 23:11:00,
2013-06-29 17:16:00,55.8,50.1,30.47,NE,45,4.5,4.5,81,0.03,,,0.08,WUHU216HW,2013-06-29 23:16:00,
2013-06-29 17:21:00,56.2,50.4,30.47,NNE,23,4.0,4.5,81,0.02,,,0.08,WUHU216HW,2013-06-29 23:21:00,
2013-06-29 17:27:00,56.7,50.6,30.46,NE,45,3.6,8.1,80,0.02,,,0.08,WUHU216HW,2013-06-29 23:27:00,
2013-06-29 17:31:00,56.9,49.7,30.45,NE,45,2.2,8.1,77,0.02,,,0.08,WUHU216HW,2013-06-29 23:31:00,
2013-06-29 17:36:00,57.8,50.2,30.45,SW,225,2.0,3.1,76,0.02,,,0.08,WUHU216HW,2013-06-29 23:36:00,
2013-06-29 17:41:00,58.5,50.2,30.44,SE,135,3.4,3.4,74,0.01,,,0.08,WUHU216HW,2013-06-29 23:41:00,
2013-06-29 17:47:00,59.0,49.3,30.43,SSE,158,0.4,3.4,70,0.01,,,0.08,WUHU216HW,2013-06-29 23:47:00,
2013-06-29 17:51:00,59.9,49.8,30.43,WSW,248,0.0,3.4,69,0.01,,,0.08,WUHU216HW,2013-06-29 23:51:00,
2013-06-29 17:56:00,60.8,49.5,30.43,South,180,2.0,2.0,66,0.00,,,0.08,WUHU216HW,2013-06-29 23:56:00,
2013-06-29 18:01:00,60.5,49.2,30.43,West,270,1.3,2.0,66,0.00,,,0.08,WUHU216HW,2013-06-30 00:01:00,
2013-06-29 18:06:00,60.3,48.5,30.43,WNW,293,2.9,2.9,65,0.00,,,0.08,WUHU216HW,2013-06-30 00:06:00,
2013-06-29 18:11:00,59.9,49.0,30.42,NNW,338,0.9,2.9,67,0.00,,,0.08,WUHU216HW,2013-06-30 00:11:00,
2013-06-29 18:17:00,59.8,48.8,30.42,SSW,203,1.6,2.9,67,0.00,,,0.08,WUHU216HW,2013-06-30 00:17:00,
2013-06-29 18:22:00,59.4,47.2,30.42,SW,225,1.1,2.0,64,0.00,,,0.08,WUHU216HW,2013-06-30 00:22:00,
2013-06-29 18:26:00,59.0,46.8,30.42,SSE,158,0.4,1.6,64,0.00,,,0.08,WUHU216HW,2013-06-30 00:26:00,
2013-06-29 18:32:00,59.0,46.8,30.43,ENE,68,0.4,1.1,64,0.00,,,0.08,WUHU216HW,2013-06-30 00:32:00,
2013-06-29 18:37:00,58.9,46.7,30.43,North,0,0.2,0.9,64,0.00,,,0.08,WUHU216HW,2013-06-30 00:37:00,
2013-06-29 18:42:00,58.7,46.9,30.43,North,0,0.7,1.8,65,0.00,,,0.08,WUHU216HW,2013-06-30 00:42:00,
2013-06-29 18:47:00,58.7,48.2,30.43,North,0,0.9,1.8,68,0.00,,,0.08,WUHU216HW,2013-06-30 00:47:00,
2013-06-29 18:52:00,58.5,47.5,30.43,NE,45,2.2,2.2,67,0.00,,,0.08,WUHU216HW,2013-06-30 00:52:00,
2013-06-29 18:57:00,58.1,47.3,30.43,WSW,248,1.1,2.2,67,0.00,,,0.08,WUHU216HW,2013-06-30 00:57:00,
2013-06-29 19:02:00,58.0,47.4,30.42,NNW,338,1.6,1.6,68,0.00,,,0.08,WUHU216HW,2013-06-30 01:02:00,
2013-06-29 19:07:00,58.1,47.3,30.42,North,0,2.2,2.2,67,0.00,,,0.08,WUHU216HW,2013-06-30 01:07:00,
2013-06-29 19:12:00,58.0,47.1,30.42,North,0,0.9,2.5,67,0.00,,,0.08,WUHU216HW,2013-06-30 01:12:00,
2013-06-29 19:17:00,58.0,47.1,30.42,NNE,23,0.4,2.5,67,0.00,,,0.08,WUHU216HW,2013-06-30 01:17:00,
2013-06-29 19:22:00,58.0,47.4,30.42,NNE,23,0.7,0.9,68,0.00,,,0.08,WUHU216HW,2013-06-30 01:22:00,
2013-06-29 19:27:00,57.8,46.9,30.42,NNW,338,1.8,1.8,67,0.00,,,0.08,WUHU216HW,2013-06-30 01:27:00,
2013-06-29 19:32:00,58.0,47.4,30.42,NNW,338,2.0,2.0,68,0.00,,,0.08,WUHU216HW,2013-06-30 01:32:00,
2013-06-29 19:37:00,58.0,47.9,30.41,North,0,1.6,2.0,69,0.00,,,0.08,WUHU216HW,2013-06-30 01:37:00,
2013-06-29 19:42:00,58.0,47.4,30.41,NNE,23,2.2,2.2,68,0.00,,,0.08,WUHU216HW,2013-06-30 01:42:00,
2013-06-29 19:47:00,57.8,47.7,30.41,North,0,2.7,2.7,69,0.00,,,0.08,WUHU216HW,2013-06-30 01:47:00,
2013-06-29 19:52:00,57.6,47.5,30.41,North,0,0.4,2.7,69,0.00,,,0.08,WUHU216HW,2013-06-30 01:52:00,
2013-06-29 19:57:00,57.4,47.7,30.41,ENE,68,1.8,1.8,70,0.00,,,0.08,WUHU216HW,2013-06-30 01:57:00,
2013-06-29 20:02:00,57.2,47.2,30.41,North,0,2.0,2.0,69,0.00,,,0.08,WUHU216HW,2013-06-30 02:02:00,
2013-06-29 20:07:00,57.2,47.2,30.41,NNE,23,1.8,2.0,69,0.00,,,0.08,WUHU216HW,2013-06-30 02:07:00,
2013-06-29 20:12:00,57.2,47.2,30.41,NNE,23,2.5,2.5,69,0.00,,,0.08,WUHU216HW,2013-06-30 02:12:00,
2013-06-29 20:17:00,57.1,46.5,30.42,NNE,23,1.6,2.5,68,0.00,,,0.08,WUHU216HW,2013-06-30 02:17:00,
2013-06-29 20:22:00,57.2,45.9,30.41,NE,45,2.5,2.5,66,0.00,,,0.08,WUHU216HW,2013-06-30 02:22:00,
2013-06-29 20:27:00,56.9,45.6,30.41,NE,45,3.1,3.1,66,0.00,,,0.08,WUHU216HW,2013-06-30 02:27:00,
2013-06-29 20:31:00,56.9,45.6,30.41,NE,45,3.1,3.1,66,0.00,,,0.08,WUHU216HW,2013-06-30 02:31:00,
2013-06-29 20:36:00,57.1,45.0,30.41,ENE,68,3.1,3.4,64,0.00,,,0.08,WUHU216HW,2013-06-30 02:36:00,
2013-06-29 20:41:00,56.7,44.7,30.41,NE,45,3.1,3.4,64,0.00,,,0.08,WUHU216HW,2013-06-30 02:41:00,
2013-06-29 20:46:00,56.5,44.5,30.41,NE,45,2.9,3.1,64,0.00,,,0.08,WUHU216HW,2013-06-30 02:46:00,
2013-06-29 20:51:00,56.5,44.5,30.41,ENE,68,3.1,3.1,64,0.00,,,0.08,WUHU216HW,2013-06-30 02:51:00,
2013-06-29 20:56:00,56.5,43.7,30.41,NE,45,2.7,3.1,62,0.00,,,0.08,WUHU216HW,2013-06-30 02:56:00,
2013-06-29 21:02:00,56.5,43.2,30.41,NE,45,3.4,3.4,61,0.00,,,0.08,WUHU216HW,2013-06-30 03:02:00,
2013-06-29 21:07:00,56.5,42.4,30.41,NE,45,3.8,3.8,59,0.00,,,0.08,WUHU216HW,2013-06-30 03:07:00,
2013-06-29 21:12:00,56.5,42.4,30.42,NNE,23,3.6,3.8,59,0.00,,,0.08,WUHU216HW,2013-06-30 03:12:00,
2013-06-29 21:17:00,56.3,42.2,30.41,NNE,23,2.9,3.6,59,0.00,,,0.08,WUHU216HW,2013-06-30 03:17:00,
2013-06-29 21:22:00,56.0,42.3,30.41,North,0,2.5,3.6,60,0.00,,,0.08,WUHU216HW,2013-06-30 03:22:00,
2013-06-29 21:27:00,55.6,42.4,30.41,NE,45,1.3,2.9,61,0.00,,,0.08,WUHU216HW,2013-06-30 03:27:00,
2013-06-29 21:32:00,54.4,42.4,30.42,SSE,158,0.9,2.5,64,0.00,,,0.08,WUHU216HW,2013-06-30 03:32:00,
2013-06-29 21:37:00,53.8,41.9,30.42,ENE,68,0.4,1.1,64,0.00,,,0.08,WUHU216HW,2013-06-30 03:37:00,
2013-06-29 21:42:00,53.6,42.1,30.42,East,90,0.9,0.9,65,0.00,,,0.08,WUHU216HW,2013-06-30 03:42:00,
2013-06-29 21:47:00,53.6,42.9,30.42,ENE,68,0.4,0.9,67,0.00,,,0.08,WUHU216HW,2013-06-30 03:47:00,
2013-06-29 21:52:00,53.3,43.0,30.42,ENE,68,3.8,3.8,68,0.00,,,0.08,WUHU216HW,2013-06-30 03:52:00,
2013-06-29 21:57:00,53.3,43.4,30.42,North,0,1.6,3.8,69,0.00,,,0.08,WUHU216HW,2013-06-30 03:57:00,
2013-06-29 22:01:00,52.9,42.2,30.42,NE,45,3.4,3.8,67,0.00,,,0.08,WUHU216HW,2013-06-30 04:01:00,
2013-06-29 22:06:00,52.6,41.5,30.42,NE,45,4.7,4.7,66,0.00,,,0.08,WUHU216HW,2013-06-30 04:06:00,
2013-06-29 22:11:00,52.6,42.0,30.42,ENE,68,5.4,5.4,67,0.00,,,0.08,WUHU216HW,2013-06-30 04:11:00,
2013-06-29 22:16:00,52.2,41.6,30.42,ENE,68,2.2,5.4,67,0.00,,,0.08,WUHU216HW,2013-06-30 04:16:00,
2013-06-29 22:21:00,52.0,41.0,30.42,NE,45,2.7,5.4,66,0.00,,,0.08,WUHU216HW,2013-06-30 04:21:00,
2013-06-29 22:26:00,52.2,40.8,30.42,ENE,68,2.9,2.9,65,0.00,,,0.08,WUHU216HW,2013-06-30 04:26:00,
2013-06-29 22:31:00,52.4,40.5,30.42,NE,45,2.9,2.9,64,0.00,,,0.08,WUHU216HW,2013-06-30 04:31:00,
2013-06-29 22:36:00,52.6,40.7,30.42,NNE,23,2.2,2.9,64,0.00,,,0.08,WUHU216HW,2013-06-30 04:36:00,
2013-06-29 22:41:00,52.2,40.3,30.42,ENE,68,0.0,2.2,64,0.00,,,0.08,WUHU216HW,2013-06-30 04:41:00,
2013-06-29 22:46:00,51.8,40.0,30.42,East,90,2.0,2.0,64,0.00,,,0.08,WUHU216HW,2013-06-30 04:46:00,
2013-06-29 22:51:00,51.7,40.2,30.42,East,90,4.3,4.3,65,0.00,,,0.08,WUHU216HW,2013-06-30 04:51:00,
2013-06-29 22:56:00,51.8,40.4,30.41,ENE,68,4.3,4.3,65,0.00,,,0.08,WUHU216HW,2013-06-30 04:56:00,
2013-06-29 23:01:00,52.2,40.3,30.42,ENE,68,4.3,4.3,64,0.00,,,0.08,WUHU216HW,2013-06-30 05:01:00,
2013-06-29 23:06:00,52.6,40.3,30.41,NE,45,3.1,4.3,63,0.00,,,0.08,WUHU216HW,2013-06-30 05:06:00,
2013-06-29 23:11:00,52.7,40.4,30.41,ENE,68,4.0,4.0,63,0.00,,,0.08,WUHU216HW,2013-06-30 05:11:00,
2013-06-29 23:16:00,52.7,40.4,30.42,East,90,2.0,4.0,63,0.00,,,0.08,WUHU216HW,2013-06-30 05:16:00,
2013-06-29 23:21:00,53.1,40.0,30.42,ENE,68,3.8,4.5,61,0.00,,,0.08,WUHU216HW,2013-06-30 05:21:00,
2013-06-29 23:26:00,53.1,40.4,30.42,ENE,68,3.1,4.5,62,0.00,,,0.08,WUHU216HW,2013-06-30 05:26:00,
2013-06-29 23:31:00,53.3,39.8,30.42,ENE,68,3.1,3.8,60,0.00,,,0.08,WUHU216HW,2013-06-30 05:31:00,
2013-06-29 23:36:00,53.6,40.1,30.42,ENE,68,4.0,4.0,60,0.00,,,0.08,WUHU216HW,2013-06-30 05:36:00,
2013-06-29 23:41:00,53.8,40.7,30.42,ENE,68,3.6,4.0,61,0.00,,,0.08,WUHU216HW,2013-06-30 05:41:00,
2013-06-29 23:46:00,54.0,41.2,30.42,ENE,68,3.4,3.6,62,0.00,,,0.08,WUHU216HW,2013-06-30 05:46:00,
2013-06-29 23:51:00,53.6,41.3,30.42,ENE,68,3.6,4.0,63,0.00,,,0.08,WUHU216HW,2013-06-30 05:51:00,
2013-06-29 23:56:00,53.6,41.3,30.42,NNE,23,1.8,4.0,63,0.00,,,0.08,WUHU216HW,2013-06-30 05:56:00,